TimeCST,TemperatureF,Dew PointF,Humidity,Sea Level PressureIn,VisibilityMPH,Wind Direction,Wind SpeedMPH,Gust SpeedMPH,PrecipitationIn,Events,Conditions,WindDirDegrees,DateUTC
3:55 AM,40.1,39.6,98,29.92,2.5,Calm,Calm,-,N/A,,Light Drizzle,0,2012-12-07 09:55:00
4:15 AM,39.7,39.4,99,29.92,2.5,Calm,Calm,-,N/A,,Overcast,0,2012-12-07 10:15:00
4:35 AM,39.7,39.6,99,29.93,2.0,Calm,Calm,-,N/A,,Overcast,0,2012-12-07 10:35:00
4:55 AM,39.9,39.6,99,29.93,2.5,NNW,3.5,-,N/A,,Overcast,330,2012-12-07 10:55:00
5:15 AM,39.7,39.4,99,29.94,7.0,North,6.9,-,N/A,,Overcast,350,2012-12-07 11:15:00
5:35 AM,39.6,37.8,93,29.94,7.0,North,5.8,-,N/A,,Overcast,360,2012-12-07 11:35:00
5:55 AM,39.4,37.4,93,29.95,10.0,North,6.9,-,N/A,,Overcast,360,2012-12-07 11:55:00
6:15 AM,39.4,36.9,91,29.95,10.0,North,8.1,-,N/A,,Overcast,10,2012-12-07 12:15:00
6:35 AM,39.2,36.1,89,29.96,10.0,NNE,8.1,-,N/A,,Overcast,20,2012-12-07 12:35:00
6:55 AM,38.8,36.0,89,29.95,10.0,NNE,6.9,-,N/A,,Overcast,30,2012-12-07 12:55:00
7:15 AM,38.7,35.8,89,29.95,10.0,NNE,8.1,-,N/A,,Overcast,20,2012-12-07 13:15:00
7:35 AM,38.5,35.6,89,29.95,10.0,NNE,8.1,-,N/A,,Overcast,30,2012-12-07 13:35:00
7:55 AM,38.3,35.8,91,29.96,7.0,NNE,9.2,-,N/A,,Overcast,30,2012-12-07 13:55:00
8:15 AM,38.3,35.6,90,29.95,7.0,NE,9.2,-,N/A,,Mostly Cloudy,40,2012-12-07 14:15:00
8:35 AM,38.3,35.6,90,29.96,7.0,NNE,8.1,-,N/A,,Scattered Clouds,30,2012-12-07 14:35:00
8:55 AM,38.3,35.4,89,29.95,10.0,NE,10.4,-,N/A,,Mostly Cloudy,40,2012-12-07 14:55:00
9:15 AM,38.8,34.7,85,29.96,10.0,NE,10.4,-,N/A,,Mostly Cloudy,40,2012-12-07 15:15:00
9:35 AM,38.7,34.2,84,29.95,10.0,NE,12.7,-,N/A,,Mostly Cloudy,40,2012-12-07 15:35:00
9:55 AM,39.2,34.7,84,29.96,10.0,NE,13.8,-,N/A,,Scattered Clouds,40,2012-12-07 15:55:00
10:15 AM,40.1,34.7,81,29.95,10.0,NE,11.5,-,N/A,,Mostly Cloudy,40,2012-12-07 16:15:00
10:35 AM,39.9,34.3,80,29.94,10.0,NE,11.5,-,N/A,,Mostly Cloudy,40,2012-12-07 16:35:00
10:55 AM,40.1,34.5,80,29.93,10.0,ENE,9.2,-,N/A,,Overcast,70,2012-12-07 16:55:00
11:15 AM,40.5,34.7,80,29.93,10.0,NE,8.1,-,N/A,,Overcast,50,2012-12-07 17:15:00
11:35 AM,40.3,34.7,80,29.93,10.0,NNE,6.9,-,N/A,,Overcast,30,2012-12-07 17:35:00
11:55 AM,40.3,34.7,80,29.93,10.0,NNE,8.1,-,N/A,,Overcast,30,2012-12-07 17:55:00
12:15 PM,40.3,34.7,80,29.94,10.0,North,6.9,-,N/A,,Mostly Cloudy,360,2012-12-07 18:15:00
12:35 PM,40.1,34.2,79,29.93,10.0,NNE,9.2,-,N/A,,Scattered Clouds,20,2012-12-07 18:35:00
12:55 PM,40.1,33.6,78,29.92,10.0,North,10.4,-,N/A,,Mostly Cloudy,10,2012-12-07 18:55:00
1:15 PM,40.1,33.3,77,29.92,10.0,NNE,9.2,-,N/A,,Overcast,30,2012-12-07 19:15:00
1:35 PM,40.1,33.1,76,29.91,10.0,NNE,9.2,-,N/A,,Mostly Cloudy,20,2012-12-07 19:35:00
1:55 PM,40.1,33.1,76,29.90,10.0,NE,10.4,-,N/A,,Overcast,40,2012-12-07 19:55:00
2:15 PM,40.1,33.1,76,29.90,10.0,NE,9.2,-,N/A,,Overcast,40,2012-12-07 20:15:00
2:35 PM,40.1,33.3,77,29.90,10.0,NE,10.4,-,N/A,,Overcast,40,2012-12-07 20:35:00
2:55 PM,40.3,33.3,76,29.90,10.0,NE,10.4,-,N/A,,Overcast,50,2012-12-07 20:55:00
3:15 PM,40.3,34.3,79,29.90,10.0,ENE,9.2,-,N/A,,Overcast,60,2012-12-07 21:15:00
3:35 PM,40.3,34.7,80,29.90,10.0,ENE,9.2,-,N/A,,Overcast,60,2012-12-07 21:35:00
3:55 PM,40.3,34.7,80,29.90,10.0,NE,9.2,-,N/A,,Overcast,50,2012-12-07 21:55:00
4:15 PM,40.1,34.9,82,29.90,10.0,ENE,9.2,-,N/A,,Overcast,60,2012-12-07 22:15:00
4:35 PM,40.1,35.1,82,29.90,10.0,ENE,8.1,-,N/A,,Overcast,60,2012-12-07 22:35:00
4:55 PM,40.1,34.7,81,29.90,10.0,ENE,8.1,-,N/A,,Overcast,60,2012-12-07 22:55:00
5:15 PM,39.7,35.2,84,29.90,10.0,ENE,8.1,-,N/A,,Overcast,60,2012-12-07 23:15:00
5:35 PM,39.6,35.4,85,29.90,10.0,ENE,8.1,-,N/A,,Overcast,70,2012-12-07 23:35:00
5:55 PM,39.7,35.2,84,29.90,10.0,ENE,6.9,-,N/A,,Overcast,60,2012-12-07 23:55:00
6:15 PM,39.7,35.6,85,29.89,10.0,ENE,6.9,-,N/A,,Overcast,70,2012-12-08 00:15:00
6:35 PM,39.4,35.8,87,29.90,10.0,ENE,6.9,-,N/A,,Overcast,70,2012-12-08 00:35:00
6:55 PM,39.2,35.8,88,29.89,10.0,ENE,9.2,-,N/A,,Overcast,60,2012-12-08 00:55:00
7:15 PM,39.2,35.1,85,29.89,10.0,NE,9.2,-,N/A,,Overcast,50,2012-12-08 01:15:00
7:35 PM,39.2,35.2,86,29.90,10.0,ENE,9.2,-,N/A,,Overcast,60,2012-12-08 01:35:00
7:55 PM,39.0,35.1,86,29.90,10.0,ENE,10.4,-,N/A,,Overcast,60,2012-12-08 01:55:00
8:15 PM,38.7,35.1,87,29.90,10.0,NE,8.1,-,N/A,,Overcast,50,2012-12-08 02:15:00
8:35 PM,38.7,35.1,87,29.91,10.0,NNE,6.9,-,N/A,,Overcast,30,2012-12-08 02:35:00
8:55 PM,38.5,34.9,87,29.91,10.0,NNE,9.2,-,N/A,,Overcast,20,2012-12-08 02:55:00
9:15 PM,38.3,34.9,87,29.91,10.0,NNE,8.1,-,N/A,,Overcast,30,2012-12-08 03:15:00
9:35 PM,37.9,34.7,88,29.90,10.0,NNE,9.2,-,N/A,,Overcast,20,2012-12-08 03:35:00
9:55 PM,37.8,34.7,89,29.90,10.0,NNE,9.2,-,N/A,,Overcast,30,2012-12-08 03:55:00
10:15 PM,37.6,34.7,89,29.90,10.0,NNE,8.1,-,N/A,,Overcast,20,2012-12-08 04:15:00
10:35 PM,37.4,34.5,89,29.90,10.0,NNE,11.5,-,N/A,,Overcast,30,2012-12-08 04:35:00
10:55 PM,37.2,34.7,91,29.90,10.0,NNE,10.4,-,0.01,Rain,Light Rain,20,2012-12-08 04:55:00
11:15 PM,36.7,34.7,93,29.91,7.0,NNE,12.7,-,N/A,Rain,Light Rain,20,2012-12-08 05:15:00
11:35 PM,36.1,34.0,92,29.91,7.0,NNE,10.4,-,0.01,Rain,Light Rain,20,2012-12-08 05:35:00
11:55 PM,35.1,33.8,95,29.91,5.0,NNE,10.4,-,0.03,Rain,Rain,30,2012-12-08 05:55:00